Location: Benzenzimmern
(48.8896°N, 10.4367°E)
Time: 02:40:37
(UTC+00:00)

Daily predictions for brighter satellites

Satellite Brightness Start Highest point End
(mag) Time Altitude Azimuth Time Altitude Azimuth Time Altitude Azimuth
Cosmos 292 Rocket 4.4 00:04:41 27° SSE 00:06:50 44° ESE 00:11:24 10° NE
Cosmos 2227 Rocket 2.2 00:05:20 26° SSW 00:08:38 85° WNW 00:14:21 10° NNE
Cosmos 1892 3.5 00:09:05 27° WSW 00:10:12 35° WNW 00:13:28 10° N
IDEFIX/ARIANE 42P 4.2 00:06:33 10° NE 00:10:49 25° E 00:14:28 12° SE
Cosmos 990 Rocket 3.9 00:08:24 30° SSW 00:11:01 81° ESE 00:16:11 10° NNE
Cosmos 332 Rocket 4.1 00:09:47 26° SW 00:12:28 62° WNW 00:17:21 10° NNE
SL-12 R/B(2) 4.4 00:09:26 22° SSW 00:15:07 75° SE 00:24:55 10° NE
CENTAUR R/B 2.5 00:12:18 26° SSW 00:15:43 73° SE 00:22:47 10° NE
CZ-2C R/B 4.2 00:11:40 10° ESE 00:16:16 31° ENE 00:20:57 10° N
CZ-2D R/B 4.0 00:14:17 10° NE 00:18:17 21° E 00:22:12 10° SE
GEOS 3 Rocket 3.6 00:13:20 10° NE 00:18:31 78° NW 00:22:02 21° SW
Meteor 1-21 Rocket 4.2 00:18:17 26° S 00:21:41 86° E 00:27:24 10° NNE
H-2A R/B 3.3 00:17:55 10° N 00:21:44 32° WNW 00:24:02 19° WSW
Cosmos 1975 Rocket 3.3 00:21:39 28° SSE 00:23:49 64° E 00:28:10 10° NNE
Cosmos 1538 Rocket 4.1 00:19:09 10° NNW 00:24:17 62° WSW 00:27:12 25° S
SL-4 R/B 3.2 00:23:32 10° W 00:26:25 25° SW 00:26:25 25° SW
Cosmos 2297 Rocket 3.3 00:24:23 12° WSW 00:29:06 38° NW 00:34:23 10° NNE
Cosmos 2219 3.2 00:27:36 26° SSW 00:30:55 83° ESE 00:36:34 10° NNE
Cosmos 2341 Rocket 4.2 00:28:16 20° S 00:32:34 65° E 00:38:44 10° NNE
Cosmos 2084 Rocket 4.1 00:29:51 17° WSW 00:32:53 49° NW 00:36:54 10° NE
Cosmos 1455 Rocket 3.2 00:30:59 10° NNW 00:35:24 63° W 00:37:36 28° SSW
Aureole 1 Rocket 2.7 00:38:34 33° SSW 00:40:09 89° WNW 00:44:35 10° NNE
Cosmos 1825 4.1 00:42:47 13° W 00:44:16 17° WNW 00:46:32 10° NNW
Cosmos 372 Rocket 4.2 00:42:35 24° S 00:45:46 66° ESE 00:50:58 10° NNE
ADEOS II 3.9 00:41:43 10° NE 00:45:57 24° E 00:50:08 10° SE
Meteor 2-1 Rocket 4.3 00:42:54 10° NNW 00:48:51 81° W 00:53:19 18° S
Cosmos 923 Rocket 3.9 00:47:06 10° NNW 00:52:24 79° WSW 00:56:51 14° SSE
Cosmos 1025 Rocket 4.0 00:50:34 21° SW 00:52:51 35° WNW 00:56:50 10° N
BREEZE-M DEB (TANK) 2.5 00:54:33 10° WNW 00:58:43 31° SW 00:58:59 30° SSW
Resurs 1-4 Rocket 2.9 00:53:47 10° NNE 00:58:52 46° E 01:03:09 14° S
NOSS 3-2 (A) 3.2 00:56:57 21° SW 01:00:40 89° NW 01:06:59 10° NE
Cosmos 1937 Rocket 3.6 00:58:06 22° SSW 01:01:37 77° ESE 01:06:52 10° NNE
Cosmos 1606 2.4 00:58:29 10° NNW 01:02:04 73° W 01:04:04 24° S
Cosmos 2263 Rocket 2.2 00:58:49 21° SSW 01:02:38 82° WNW 01:08:15 10° NNE
CZ-4C R/B 3.9 00:59:58 10° W 01:04:25 30° NNW 01:09:54 10° NE
Cosmos 1898 Rocket 3.5 01:01:19 22° SSW 01:04:45 77° WNW 01:09:57 10° NNE
NOSS 3-2 (C) 3.6 01:03:08 20° S 01:06:37 51° ESE 01:12:34 10° NE
Cosmos 1821 Rocket 4.5 01:01:26 12° SSE 01:06:54 55° E 01:12:53 10° NNE
Orbus 7S? 2.8 01:04:47 10° NW 01:07:30 85° SW 01:11:39 10° SE
MOZ.5/SAFIR/RUBIN 5/SL-8 3.9 01:05:48 20° S 01:08:53 56° W 01:13:28 10° NNW
Cosmos 2218 Rocket 4.0 01:04:28 18° S 01:09:16 89° W 01:15:29 10° N
Helios 1A Rocket 3.9 01:12:04 21° SW 01:13:31 28° W 01:16:50 10° NW
BlueWalker 3 3.2 01:11:12 10° WNW 01:14:46 41° N 01:18:21 10° ENE
Cosmos 2366 rocket 4.0 01:11:40 18° SSW 01:16:32 77° W 01:22:48 10° N
Iridium 921 4.3 01:14:40 22° S 01:16:47 89° W 01:20:15 10° N
Cosmos 1461 2.7 01:14:31 23° SSW 01:16:55 74° SE 01:20:48 10° NE
Cosmos 1844 Rocket 3.9 01:17:43 10° S 01:22:37 34° ESE 01:27:37 10° NE
BREEZE-M DEB (TANK) 2.8 01:25:57 22° S 01:25:57 22° S 01:28:07 10° SSE
MSX 3.8 01:22:40 10° NNE 01:28:27 88° ESE 01:33:23 14° SSW
BREEZE-M R/B 4.5 01:22:16 10° WNW 01:32:11 90° SSE 01:37:55 10° ESE
Cosmos 1680 Rocket 3.8 01:29:38 10° NNW 01:34:37 47° WSW 01:39:26 11° S
ALOS 3.6 01:30:43 10° NNE 01:34:56 34° E 01:39:08 10° SSE
Cosmos 1818 3.9 01:30:46 10° NW 01:35:57 44° WSW 01:41:05 10° S
Cosmos 2112 Rocket 4.2 01:31:44 10° NNW 01:36:47 53° WSW 01:41:48 10° S
SL-16 R/B 3.6 01:34:00 10° NW 01:38:10 21° W 01:41:09 14° SW
SL-16 R/B 2.9 01:32:15 10° SSE 01:38:27 72° ENE 01:44:41 10° NNW
Cosmos 1603 3.7 01:37:45 10° NNW 01:43:33 83° WSW 01:49:16 10° SSE
USA 234 3.9 01:40:49 10° E 01:47:14 60° NNE 01:53:39 10° NW
COSMOS 2441 4.4 01:43:03 10° NNE 01:47:54 89° SW 01:52:26 12° SSW
Meteor 1-28 Rocket 3.1 01:45:13 10° SSE 01:48:44 78° ENE 01:52:18 10° N
IDEFIX/ARIANE 42P 3.0 01:45:32 10° N 01:50:39 53° WNW 01:55:13 13° SW
Cosmos 2228 3.8 01:48:30 10° NNW 01:52:26 35° W 01:55:50 13° SSW
Cosmos 2227 Rocket 4.1 01:49:21 10° W 01:53:33 21° NW 01:57:46 10° N
Cosmos 1943 3.5 01:48:16 10° NW 01:53:38 46° WSW 01:58:56 10° S
CZ-2C R/B 3.2 01:50:19 10° NNE 01:55:48 77° WNW 02:00:50 11° SSW
CZ-2C R/B 3.0 01:51:21 10° S 01:56:20 44° W 02:01:31 10° NNW
Cosmos 1437 Rocket 2.7 01:53:28 13° SSW 01:56:51 73° WNW 02:00:39 10° N
CZ-2D R/B 2.3 01:53:26 10° N 01:58:45 64° WNW 02:03:47 11° SSW
FENGYUN 3A 3.7 01:55:43 10° NNE 02:01:07 88° WNW 02:06:31 10° SSW
Cosmos 1727 Rocket 4.3 01:58:17 10° NNW 02:04:25 54° W 02:10:33 10° SSW
CENTAUR R/B 3.8 02:01:13 10° W 02:07:00 38° NNW 02:14:02 10° NE
H-2A R/B 4.4 02:04:57 10° N 02:08:30 32° WNW 02:12:02 10° SW
Cosmos 2239 Rocket 4.5 02:02:58 10° SSW 02:09:05 77° W 02:15:16 10° N
Envisat 4.2 02:05:22 10° NNE 02:10:07 39° E 02:14:51 10° SSE
Cosmos 1048 Rocket 4.0 02:06:27 10° NNW 02:11:41 78° WSW 02:16:56 10° SSE
USA 238 DEB 3.7 02:06:34 10° SSW 02:12:41 78° SE 02:19:29 10° NE
USA 238 3.7 02:06:36 10° SSW 02:12:44 78° SE 02:19:33 10° NE
ASTEX 1 3.5 02:15:58 10° S 02:20:45 58° W 02:25:34 10° NNW
Cosmos 1606 Rocket 3.9 02:18:13 10° NNW 02:22:30 47° W 02:26:43 10° SSW
Cosmos 1125 Rocket 4.1 02:18:22 10° S 02:23:30 57° ESE 02:28:42 10° NNE
Cosmos 1867 3.7 02:18:51 10° SW 02:24:19 89° NW 02:29:51 10° NE
CZ-2C R/B 3.9 02:20:16 10° NNE 02:24:22 32° E 02:28:27 10° SSE
IRAS Rocket 4.4 02:19:17 10° NNE 02:24:47 74° ESE 02:30:16 10° SSW
Cosmos 921 Rocket 3.4 02:21:00 10° NNW 02:25:00 41° WSW 02:28:56 10° S
ADEOS II 2.4 02:20:46 10° N 02:25:53 55° WNW 02:30:59 10° SW
BREEZE-M DEB (TANK) 4.3 02:22:36 10° SSW 02:28:13 23° SSE 02:30:54 10° ESE
Alouette 2 Rocket 3.6 02:23:35 10° S 02:28:15 78° ESE 02:31:55 10° NNE
Cosmos 494 Rocket 4.4 02:23:34 10° NW 02:28:29 42° WSW 02:33:24 10° S
Cosmos 1833 Rocket 4.4 02:26:04 10° NNW 02:31:22 39° NE 02:36:38 10° ESE
Cosmos 1844 3.8 02:28:36 10° SSW 02:34:24 83° WNW 02:40:14 10° NNE
